GFSGBSN_prec_pwat_336.txt.gz
Precipitable_Water
0.66 0.65 0.64 0.62 0.62 0.63 0.64 0.62 0.60 0.56 0.52 0.49 0.49 0.48 0.48 0.45 0.50 0.63 0.71 0.74 0.76 0.80 0.85 0.87 0.85 0.95 0.99 0.85 0.85 1.28 1.27 1.34 1.41 1.42 1.27 1.20 1.12 1.04 0.87 1.00 1.04 0.89 0.86 0.91 0.91 0.91 0.89
0.67 0.66 0.66 0.65 0.63 0.62 0.64 0.64 0.63 0.61 0.56 0.51 0.49 0.48 0.48 0.46 0.45 0.52 0.65 0.71 0.76 0.75 0.80 0.86 0.88 0.90 0.84 0.74 1.10 1.32 1.27 1.28 1.25 1.25 1.19 1.19 1.04 1.07 0.92 0.87 0.90 0.98 0.90 0.87 0.88 0.92 0.90
0.69 0.69 0.68 0.67 0.66 0.64 0.63 0.65 0.65 0.63 0.60 0.56 0.50 0.48 0.47 0.47 0.45 0.44 0.54 0.66 0.72 0.75 0.74 0.82 0.90 0.86 0.73 0.80 1.15 1.29 1.22 1.14 1.22 1.20 1.01 1.15 1.20 1.03 0.91 0.76 0.95 0.96 0.80 0.79 0.82 0.86 0.85
0.70 0.70 0.70 0.69 0.68 0.66 0.65 0.65 0.66 0.64 0.62 0.60 0.55 0.50 0.48 0.47 0.46 0.44 0.44 0.53 0.64 0.71 0.75 0.78 0.87 0.79 0.67 0.88 1.15 1.06 1.10 1.03 1.17 1.21 1.13 1.18 1.16 1.05 0.88 0.87 0.83 0.77 0.78 0.58 0.71 0.78 0.83
0.72 0.70 0.71 0.70 0.70 0.69 0.68 0.67 0.65 0.66 0.64 0.62 0.59 0.53 0.48 0.46 0.45 0.43 0.40 0.41 0.50 0.64 0.75 0.81 0.74 0.71 0.67 0.87 0.79 0.89 0.94 0.84 1.02 1.13 1.16 1.15 1.03 0.87 0.79 0.67 0.60 0.64 0.55 0.59 0.60 0.78 0.77
0.75 0.73 0.71 0.71 0.71 0.70 0.70 0.68 0.66 0.65 0.65 0.63 0.60 0.56 0.51 0.46 0.45 0.42 0.38 0.35 0.41 0.55 0.64 0.73 0.70 0.61 0.65 0.68 0.81 0.84 0.94 0.89 0.86 0.89 0.87 0.76 0.70 0.62 0.61 0.58 0.39 0.43 0.44 0.55 0.55 0.60 0.71
0.74 0.74 0.73 0.72 0.71 0.72 0.71 0.70 0.67 0.65 0.66 0.65 0.62 0.59 0.55 0.49 0.45 0.41 0.32 0.31 0.33 0.25 0.38 0.41 0.49 0.56 0.63 0.70 0.70 0.76 0.85 0.74 0.75 0.74 0.60 0.63 0.54 0.50 0.53 0.51 0.49 0.46 0.44 0.42 0.57 0.66 0.59
0.76 0.75 0.74 0.74 0.73 0.73 0.73 0.71 0.69 0.67 0.66 0.66 0.64 0.60 0.55 0.50 0.45 0.39 0.42 0.37 0.37 0.38 0.26 0.40 0.50 0.55 0.61 0.61 0.56 0.58 0.75 0.58 0.58 0.54 0.62 0.53 0.48 0.57 0.54 0.49 0.42 0.39 0.39 0.39 0.52 0.63 0.61
0.79 0.78 0.76 0.76 0.75 0.74 0.74 0.73 0.71 0.69 0.66 0.65 0.64 0.61 0.56 0.50 0.45 0.37 0.37 0.40 0.50 0.48 0.28 0.27 0.36 0.42 0.53 0.54 0.50 0.48 0.59 0.53 0.52 0.53 0.48 0.47 0.50 0.56 0.45 0.42 0.36 0.34 0.38 0.37 0.41 0.55 0.59
0.82 0.81 0.80 0.78 0.77 0.76 0.76 0.75 0.73 0.70 0.67 0.65 0.63 0.61 0.56 0.50 0.33 0.37 0.37 0.53 0.53 0.50 0.18 0.16 0.22 0.29 0.41 0.48 0.38 0.47 0.55 0.48 0.48 0.47 0.46 0.49 0.52 0.45 0.41 0.38 0.35 0.30 0.41 0.42 0.42 0.37 0.29
0.83 0.82 0.82 0.81 0.81 0.80 0.77 0.75 0.73 0.71 0.67 0.64 0.62 0.60 0.57 0.54 0.36 0.31 0.44 0.54 0.52 0.40 0.08 0.14 0.20 0.31 0.30 0.37 0.41 0.41 0.52 0.44 0.38 0.42 0.45 0.43 0.43 0.38 0.36 0.35 0.36 0.31 0.33 0.36 0.39 0.32 0.29
1.01 0.95 0.85 0.83 0.83 0.81 0.77 0.74 0.72 0.69 0.67 0.63 0.60 0.58 0.56 0.49 0.42 0.38 0.52 0.54 0.43 0.16 0.08 0.15 0.24 0.19 0.18 0.25 0.33 0.35 0.36 0.43 0.43 0.41 0.45 0.43 0.50 0.41 0.36 0.34 0.32 0.35 0.32 0.31 0.32 0.31 0.22
1.02 1.00 0.99 1.00 0.95 0.85 0.77 0.74 0.72 0.69 0.66 0.63 0.59 0.57 0.51 0.52 0.28 0.42 0.50 0.44 0.21 0.12 0.14 0.16 0.21 0.17 0.16 0.17 0.22 0.26 0.22 0.26 0.25 0.28 0.30 0.34 0.38 0.38 0.37 0.29 0.30 0.29 0.29 0.21 0.19 0.19 0.19
1.08 1.04 1.00 0.97 0.96 0.93 0.90 0.85 0.76 0.68 0.66 0.64 0.59 0.53 0.49 0.46 0.48 0.42 0.43 0.30 0.13 0.12 0.11 0.23 0.24 0.19 0.14 0.16 0.18 0.25 0.23 0.20 0.26 0.29 0.29 0.25 0.25 0.33 0.34 0.28 0.25 0.27 0.27 0.21 0.16 0.18 0.21
1.03 1.04 1.04 1.02 0.97 0.93 0.89 0.84 0.80 0.78 0.71 0.63 0.59 0.47 0.41 0.43 0.47 0.42 0.36 0.22 0.16 0.15 0.22 0.17 0.23 0.20 0.18 0.16 0.18 0.22 0.22 0.21 0.25 0.28 0.24 0.23 0.22 0.32 0.32 0.30 0.27 0.24 0.22 0.28 0.23 0.24 0.20
0.92 0.91 0.95 0.98 0.97 0.94 0.91 0.87 0.82 0.78 0.71 0.70 0.52 0.41 0.37 0.54 0.49 0.31 0.29 0.22 0.22 0.26 0.29 0.22 0.18 0.22 0.19 0.18 0.15 0.17 0.19 0.21 0.22 0.28 0.32 0.28 0.18 0.27 0.26 0.25 0.23 0.23 0.26 0.21 0.22 0.17 0.17
0.81 0.78 0.86 0.89 0.91 0.93 0.93 0.89 0.83 0.79 0.75 0.70 0.49 0.34 0.41 0.57 0.41 0.24 0.17 0.24 0.27 0.30 0.31 0.27 0.22 0.23 0.24 0.20 0.18 0.16 0.17 0.19 0.21 0.24 0.27 0.25 0.22 0.21 0.21 0.20 0.16 0.19 0.20 0.21 0.22 0.22 0.19
0.71 0.79 0.84 0.85 0.82 0.85 0.90 0.90 0.84 0.79 0.74 0.68 0.48 0.25 0.51 0.48 0.22 0.22 0.17 0.25 0.34 0.27 0.28 0.29 0.28 0.25 0.27 0.28 0.22 0.17 0.16 0.19 0.21 0.21 0.19 0.25 0.23 0.18 0.19 0.23 0.23 0.21 0.19 0.20 0.17 0.18 0.27
0.73 0.74 0.78 0.78 0.78 0.81 0.86 0.86 0.83 0.82 0.79 0.62 0.45 0.37 0.56 0.48 0.21 0.18 0.22 0.23 0.26 0.25 0.23 0.22 0.25 0.27 0.31 0.30 0.25 0.25 0.20 0.20 0.21 0.20 0.19 0.24 0.22 0.18 0.17 0.21 0.22 0.19 0.21 0.21 0.22 0.25 0.23
0.72 0.72 0.72 0.72 0.71 0.76 0.82 0.84 0.83 0.81 0.82 0.68 0.51 0.31 0.49 0.43 0.41 0.31 0.23 0.20 0.20 0.25 0.21 0.21 0.24 0.27 0.24 0.28 0.32 0.28 0.27 0.27 0.22 0.22 0.26 0.25 0.20 0.17 0.14 0.18 0.21 0.19 0.20 0.20 0.21 0.19 0.24
0.69 0.69 0.69 0.70 0.72 0.74 0.79 0.83 0.85 0.82 0.82 0.74 0.58 0.46 0.57 0.47 0.46 0.45 0.43 0.37 0.29 0.30 0.34 0.32 0.26 0.28 0.26 0.23 0.29 0.29 0.30 0.32 0.33 0.33 0.28 0.22 0.16 0.18 0.18 0.22 0.22 0.21 0.21 0.21 0.20 0.23 0.23
0.66 0.66 0.68 0.70 0.71 0.75 0.81 0.82 0.84 0.77 0.71 0.69 0.54 0.54 0.62 0.48 0.58 0.61 0.53 0.42 0.41 0.47 0.44 0.32 0.25 0.31 0.35 0.28 0.32 0.31 0.32 0.34 0.32 0.33 0.25 0.23 0.17 0.19 0.18 0.20 0.22 0.20 0.22 0.22 0.21 0.23 0.24
0.62 0.62 0.64 0.64 0.67 0.69 0.73 0.78 0.78 0.69 0.67 0.60 0.70 0.77 0.68 0.52 0.51 0.62 0.59 0.59 0.59 0.59 0.54 0.43 0.34 0.32 0.34 0.35 0.43 0.43 0.41 0.36 0.44 0.37 0.30 0.22 0.20 0.20 0.17 0.21 0.22 0.18 0.22 0.22 0.22 0.25 0.26
0.61 0.60 0.60 0.61 0.62 0.64 0.67 0.70 0.70 0.70 0.71 0.69 0.74 0.72 0.61 0.48 0.52 0.62 0.69 0.71 0.67 0.63 0.51 0.49 0.45 0.33 0.37 0.50 0.55 0.53 0.45 0.40 0.40 0.41 0.40 0.31 0.23 0.21 0.19 0.23 0.16 0.20 0.27 0.28 0.26 0.27 0.31
0.61 0.60 0.59 0.59 0.59 0.61 0.64 0.66 0.68 0.72 0.73 0.66 0.78 0.73 0.69 0.52 0.59 0.55 0.67 0.69 0.78 0.71 0.58 0.52 0.50 0.45 0.50 0.49 0.45 0.42 0.39 0.37 0.37 0.40 0.39 0.38 0.33 0.23 0.19 0.19 0.21 0.22 0.26 0.28 0.26 0.23 0.31
0.61 0.60 0.60 0.58 0.58 0.58 0.62 0.65 0.68 0.71 0.76 0.70 0.71 0.91 0.84 0.66 0.56 0.65 0.65 0.74 0.73 0.67 0.60 0.58 0.58 0.57 0.51 0.43 0.42 0.34 0.30 0.32 0.33 0.37 0.40 0.39 0.38 0.30 0.26 0.19 0.16 0.22 0.30 0.38 0.37 0.21 0.35
0.62 0.62 0.61 0.59 0.59 0.58 0.59 0.62 0.69 0.74 0.80 0.78 0.72 0.95 0.87 0.72 0.72 0.70 0.63 0.70 0.88 0.78 0.63 0.61 0.54 0.53 0.54 0.38 0.33 0.33 0.32 0.41 0.31 0.33 0.36 0.35 0.34 0.30 0.28 0.24 0.23 0.28 0.39 0.42 0.26 0.20 0.37
0.63 0.63 0.61 0.62 0.62 0.62 0.63 0.68 0.73 0.80 0.86 0.83 0.72 0.94 0.94 0.78 0.74 0.76 0.78 0.77 0.89 0.85 0.65 0.64 0.58 0.54 0.49 0.37 0.34 0.35 0.32 0.41 0.39 0.41 0.39 0.38 0.37 0.34 0.35 0.30 0.23 0.46 0.44 0.32 0.36 0.42 0.48
0.64 0.63 0.62 0.63 0.61 0.60 0.63 0.72 0.82 0.86 0.88 0.85 0.67 0.98 1.08 0.85 0.75 0.86 0.82 0.87 0.97 0.98 0.83 0.77 0.63 0.60 0.58 0.48 0.45 0.43 0.36 0.39 0.39 0.34 0.51 0.37 0.43 0.39 0.40 0.38 0.51 0.56 0.52 0.53 0.55 0.54 0.56

GFSGBSN_prec_pwat_339.txt.gz
Precipitable_Water
0.68 0.67 0.67 0.66 0.64 0.64 0.64 0.64 0.63 0.60 0.55 0.50 0.48 0.47 0.46 0.46 0.59 0.73 0.75 0.75 0.76 0.76 0.76 0.82 0.93 1.03 1.02 0.87 0.83 1.33 1.34 1.39 1.47 1.44 1.26 1.16 1.04 1.03 0.86 0.96 0.97 0.80 0.79 0.84 0.88 0.87 0.87
0.69 0.68 0.68 0.67 0.65 0.64 0.64 0.66 0.64 0.63 0.60 0.55 0.50 0.48 0.47 0.45 0.47 0.61 0.73 0.75 0.76 0.75 0.76 0.77 0.91 1.03 0.89 0.74 1.14 1.36 1.31 1.30 1.27 1.23 1.15 1.12 1.00 1.10 0.93 0.88 0.88 0.89 0.84 0.83 0.87 0.84 0.82
0.69 0.70 0.69 0.69 0.67 0.66 0.66 0.65 0.66 0.64 0.62 0.59 0.54 0.49 0.47 0.46 0.44 0.48 0.61 0.72 0.74 0.75 0.73 0.75 0.86 0.93 0.79 0.82 1.19 1.33 1.29 1.20 1.28 1.22 1.04 1.12 1.12 0.97 0.91 0.74 0.91 0.92 0.75 0.76 0.80 0.83 0.79
0.69 0.70 0.69 0.70 0.69 0.68 0.68 0.66 0.65 0.66 0.64 0.62 0.58 0.53 0.48 0.46 0.45 0.42 0.48 0.59 0.70 0.74 0.74 0.75 0.80 0.80 0.73 1.00 1.23 1.15 1.21 1.12 1.23 1.29 1.21 1.15 1.10 0.95 0.88 0.85 0.79 0.72 0.75 0.59 0.72 0.80 0.81
0.73 0.71 0.69 0.70 0.70 0.70 0.69 0.67 0.66 0.64 0.65 0.64 0.62 0.58 0.53 0.47 0.44 0.43 0.39 0.45 0.58 0.71 0.77 0.77 0.69 0.67 0.65 1.05 0.90 1.05 1.08 0.89 1.02 1.13 1.18 1.15 1.00 0.80 0.75 0.65 0.56 0.61 0.48 0.55 0.63 0.80 0.75
0.74 0.73 0.72 0.70 0.70 0.71 0.71 0.70 0.67 0.66 0.65 0.66 0.63 0.60 0.55 0.49 0.44 0.41 0.37 0.35 0.46 0.61 0.71 0.74 0.65 0.59 0.63 0.67 0.81 0.92 1.07 0.96 0.87 0.94 0.91 0.84 0.75 0.58 0.59 0.57 0.37 0.37 0.43 0.49 0.53 0.66 0.71
0.74 0.74 0.73 0.73 0.72 0.70 0.71 0.71 0.70 0.68 0.65 0.64 0.63 0.60 0.56 0.51 0.45 0.40 0.32 0.29 0.28 0.28 0.45 0.47 0.52 0.58 0.62 0.68 0.74 0.76 0.93 0.86 0.81 0.73 0.64 0.69 0.54 0.45 0.51 0.53 0.50 0.44 0.40 0.38 0.52 0.66 0.62
0.78 0.76 0.76 0.75 0.74 0.73 0.72 0.72 0.70 0.69 0.66 0.63 0.62 0.60 0.56 0.52 0.46 0.41 0.42 0.31 0.31 0.35 0.27 0.44 0.53 0.58 0.64 0.62 0.54 0.60 0.82 0.66 0.64 0.53 0.65 0.58 0.47 0.52 0.55 0.47 0.44 0.40 0.37 0.36 0.48 0.61 0.59
0.81 0.80 0.79 0.78 0.78 0.76 0.72 0.70 0.69 0.67 0.66 0.64 0.60 0.59 0.57 0.52 0.45 0.37 0.39 0.40 0.47 0.43 0.25 0.26 0.39 0.47 0.56 0.60 0.54 0.56 0.64 0.64 0.58 0.54 0.52 0.48 0.51 0.57 0.50 0.43 0.38 0.35 0.37 0.37 0.40 0.52 0.57
0.83 0.82 0.81 0.81 0.81 0.78 0.73 0.70 0.67 0.66 0.64 0.62 0.61 0.58 0.56 0.51 0.34 0.36 0.40 0.51 0.51 0.48 0.17 0.15 0.21 0.31 0.46 0.52 0.47 0.60 0.62 0.58 0.52 0.47 0.51 0.50 0.53 0.51 0.45 0.41 0.38 0.30 0.40 0.43 0.43 0.38 0.32
1.01 0.99 0.89 0.84 0.83 0.79 0.75 0.73 0.70 0.67 0.62 0.60 0.60 0.59 0.56 0.53 0.38 0.29 0.44 0.53 0.54 0.39 0.08 0.14 0.20 0.33 0.32 0.34 0.46 0.50 0.59 0.51 0.41 0.42 0.45 0.43 0.46 0.45 0.43 0.39 0.39 0.30 0.41 0.45 0.46 0.37 0.33
1.06 1.02 1.01 1.02 0.98 0.90 0.81 0.75 0.71 0.69 0.64 0.60 0.58 0.58 0.55 0.46 0.42 0.37 0.50 0.54 0.46 0.18 0.09 0.13 0.24 0.20 0.20 0.26 0.35 0.47 0.44 0.48 0.49 0.41 0.44 0.45 0.54 0.48 0.45 0.42 0.39 0.33 0.31 0.35 0.37 0.33 0.25
1.02 1.03 1.02 1.00 0.98 0.97 0.94 0.89 0.82 0.74 0.66 0.60 0.58 0.57 0.51 0.49 0.29 0.42 0.48 0.45 0.23 0.14 0.16 0.16 0.19 0.22 0.19 0.18 0.25 0.38 0.38 0.35 0.34 0.28 0.30 0.38 0.42 0.47 0.44 0.37 0.36 0.31 0.26 0.22 0.21 0.22 0.21
0.94 0.95 0.97 0.98 0.97 0.95 0.90 0.86 0.84 0.82 0.78 0.68 0.57 0.54 0.51 0.48 0.49 0.44 0.36 0.31 0.16 0.16 0.14 0.24 0.23 0.22 0.16 0.17 0.20 0.26 0.30 0.25 0.33 0.30 0.28 0.29 0.30 0.40 0.41 0.37 0.30 0.28 0.26 0.23 0.17 0.17 0.21
0.82 0.83 0.82 0.87 0.91 0.91 0.90 0.86 0.81 0.76 0.71 0.68 0.68 0.51 0.45 0.47 0.51 0.44 0.30 0.19 0.15 0.15 0.20 0.20 0.22 0.20 0.18 0.16 0.17 0.20 0.23 0.23 0.24 0.28 0.24 0.26 0.29 0.38 0.39 0.37 0.35 0.27 0.24 0.30 0.25 0.23 0.20
0.74 0.74 0.75 0.79 0.81 0.79 0.82 0.81 0.79 0.75 0.70 0.63 0.51 0.44 0.43 0.53 0.53 0.33 0.22 0.19 0.20 0.21 0.25 0.25 0.17 0.19 0.18 0.16 0.14 0.17 0.19 0.23 0.24 0.26 0.32 0.31 0.27 0.33 0.33 0.34 0.32 0.29 0.29 0.23 0.25 0.18 0.17
0.71 0.70 0.77 0.78 0.76 0.73 0.76 0.77 0.76 0.73 0.68 0.64 0.47 0.30 0.42 0.58 0.43 0.25 0.14 0.20 0.27 0.31 0.30 0.24 0.22 0.19 0.23 0.20 0.18 0.15 0.17 0.21 0.23 0.24 0.29 0.28 0.28 0.24 0.28 0.28 0.24 0.24 0.22 0.23 0.25 0.24 0.20
0.71 0.70 0.70 0.70 0.69 0.68 0.71 0.75 0.75 0.72 0.69 0.61 0.47 0.25 0.49 0.46 0.25 0.23 0.17 0.20 0.28 0.31 0.30 0.26 0.25 0.26 0.22 0.27 0.23 0.18 0.15 0.17 0.23 0.25 0.22 0.28 0.25 0.23 0.22 0.27 0.25 0.23 0.19 0.22 0.20 0.20 0.24
0.71 0.71 0.70 0.71 0.71 0.69 0.71 0.74 0.76 0.73 0.70 0.60 0.40 0.39 0.59 0.45 0.19 0.21 0.23 0.21 0.23 0.24 0.28 0.26 0.22 0.25 0.27 0.28 0.25 0.25 0.20 0.20 0.23 0.22 0.22 0.26 0.23 0.17 0.19 0.22 0.22 0.19 0.19 0.21 0.23 0.24 0.22
0.70 0.70 0.69 0.69 0.69 0.70 0.74 0.75 0.77 0.74 0.71 0.68 0.47 0.28 0.42 0.46 0.36 0.30 0.32 0.27 0.20 0.25 0.25 0.27 0.24 0.25 0.25 0.24 0.29 0.26 0.28 0.28 0.22 0.22 0.24 0.24 0.21 0.18 0.17 0.19 0.20 0.19 0.19 0.21 0.21 0.19 0.21
0.67 0.66 0.66 0.65 0.67 0.68 0.69 0.77 0.79 0.72 0.66 0.66 0.56 0.42 0.51 0.34 0.47 0.43 0.43 0.38 0.30 0.25 0.30 0.28 0.23 0.19 0.22 0.21 0.26 0.26 0.29 0.30 0.32 0.27 0.24 0.21 0.16 0.19 0.20 0.23 0.22 0.21 0.21 0.21 0.20 0.21 0.19
0.65 0.64 0.62 0.62 0.63 0.64 0.65 0.68 0.71 0.68 0.62 0.59 0.45 0.45 0.54 0.44 0.46 0.44 0.52 0.45 0.38 0.38 0.39 0.33 0.28 0.27 0.27 0.23 0.24 0.30 0.35 0.36 0.36 0.32 0.23 0.22 0.19 0.21 0.18 0.21 0.21 0.20 0.22 0.22 0.23 0.24 0.24
0.65 0.63 0.61 0.60 0.60 0.61 0.62 0.64 0.66 0.65 0.63 0.50 0.60 0.67 0.55 0.44 0.44 0.45 0.46 0.54 0.53 0.56 0.54 0.55 0.52 0.40 0.30 0.30 0.35 0.33 0.43 0.44 0.41 0.38 0.31 0.25 0.23 0.20 0.16 0.20 0.21 0.18 0.21 0.22 0.23 0.25 0.23
0.66 0.63 0.62 0.61 0.61 0.61 0.62 0.64 0.65 0.66 0.68 0.58 0.56 0.58 0.48 0.35 0.46 0.47 0.52 0.63 0.63 0.64 0.56 0.57 0.59 0.48 0.39 0.47 0.47 0.42 0.44 0.45 0.43 0.40 0.42 0.31 0.24 0.23 0.17 0.18 0.14 0.19 0.25 0.25 0.23 0.24 0.27
0.67 0.65 0.63 0.62 0.61 0.61 0.60 0.61 0.64 0.65 0.68 0.61 0.61 0.54 0.51 0.41 0.50 0.50 0.52 0.52 0.67 0.71 0.65 0.61 0.64 0.64 0.59 0.49 0.37 0.33 0.37 0.39 0.41 0.43 0.42 0.41 0.32 0.21 0.19 0.18 0.19 0.19 0.22 0.24 0.24 0.25 0.30
0.67 0.66 0.66 0.63 0.63 0.64 0.63 0.62 0.60 0.64 0.67 0.65 0.64 0.71 0.63 0.52 0.49 0.66 0.63 0.61 0.54 0.62 0.64 0.70 0.73 0.69 0.57 0.42 0.38 0.33 0.28 0.33 0.34 0.38 0.42 0.42 0.41 0.35 0.26 0.20 0.16 0.20 0.26 0.31 0.32 0.20 0.32
0.69 0.68 0.66 0.65 0.67 0.65 0.63 0.63 0.65 0.67 0.69 0.72 0.68 0.84 0.75 0.57 0.64 0.70 0.60 0.59 0.70 0.69 0.68 0.79 0.69 0.60 0.58 0.39 0.36 0.35 0.32 0.39 0.33 0.34 0.35 0.38 0.38 0.33 0.32 0.28 0.25 0.28 0.34 0.38 0.22 0.20 0.31
0.70 0.67 0.67 0.66 0.66 0.64 0.61 0.63 0.63 0.72 0.80 0.76 0.69 0.86 0.74 0.61 0.64 0.77 0.78 0.66 0.68 0.74 0.73 0.88 0.69 0.63 0.52 0.40 0.38 0.39 0.36 0.41 0.39 0.42 0.42 0.39 0.36 0.34 0.35 0.31 0.26 0.45 0.43 0.30 0.35 0.38 0.41
0.69 0.67 0.67 0.65 0.65 0.63 0.61 0.61 0.64 0.73 0.78 0.83 0.68 0.88 0.90 0.69 0.71 0.90 0.84 0.84 0.79 0.88 0.91 0.96 0.77 0.70 0.63 0.52 0.50 0.48 0.40 0.42 0.41 0.35 0.51 0.37 0.42 0.39 0.40 0.38 0.51 0.56 0.54 0.57 0.55 0.50 0.53

GFSGBSN_prec_pwat_342.txt.gz
Precipitable_Water
0.68 0.67 0.67 0.66 0.66 0.64 0.64 0.64 0.62 0.62 0.57 0.52 0.49 0.48 0.46 0.52 0.69 0.74 0.74 0.75 0.75 0.80 0.86 0.93 1.01 1.06 1.02 0.88 0.86 1.29 1.38 1.44 1.50 1.45 1.32 1.20 1.07 1.04 0.86 0.89 0.92 0.78 0.74 0.79 0.89 0.94 0.93
0.69 0.68 0.68 0.67 0.66 0.66 0.64 0.63 0.64 0.62 0.61 0.57 0.52 0.50 0.49 0.47 0.55 0.69 0.73 0.72 0.72 0.70 0.75 0.84 0.95 1.03 0.90 0.75 1.23 1.40 1.38 1.38 1.37 1.30 1.16 1.16 1.02 1.05 0.93 0.85 0.83 0.85 0.82 0.78 0.83 0.91 0.95
0.70 0.69 0.69 0.68 0.67 0.66 0.65 0.63 0.62 0.64 0.62 0.61 0.58 0.53 0.51 0.49 0.46 0.55 0.70 0.71 0.71 0.70 0.69 0.72 0.89 0.94 0.83 0.76 1.25 1.39 1.38 1.30 1.34 1.23 1.03 1.11 1.08 0.95 0.89 0.77 0.91 0.87 0.74 0.79 0.80 0.84 0.86
0.71 0.69 0.69 0.69 0.69 0.68 0.67 0.65 0.63 0.62 0.64 0.62 0.61 0.57 0.51 0.48 0.46 0.44 0.53 0.67 0.69 0.71 0.71 0.70 0.81 0.86 0.74 1.07 1.30 1.24 1.28 1.21 1.29 1.27 1.14 1.12 1.06 0.92 0.84 0.82 0.77 0.72 0.72 0.64 0.75 0.78 0.77
0.73 0.73 0.72 0.69 0.70 0.69 0.69 0.68 0.67 0.64 0.62 0.63 0.61 0.59 0.54 0.49 0.44 0.43 0.40 0.49 0.63 0.72 0.74 0.72 0.68 0.71 0.69 1.10 0.98 1.11 1.21 0.96 1.10 1.16 1.12 1.05 0.94 0.73 0.73 0.66 0.62 0.62 0.48 0.54 0.62 0.80 0.73
0.74 0.73 0.72 0.73 0.71 0.70 0.70 0.69 0.68 0.65 0.62 0.60 0.60 0.58 0.56 0.50 0.45 0.40 0.36 0.36 0.49 0.65 0.71 0.72 0.62 0.56 0.70 0.75 0.83 0.98 1.15 1.02 0.91 0.95 0.92 0.84 0.73 0.56 0.56 0.56 0.43 0.41 0.44 0.48 0.54 0.64 0.72
0.78 0.75 0.74 0.74 0.74 0.71 0.68 0.68 0.67 0.65 0.64 0.60 0.57 0.57 0.56 0.53 0.46 0.40 0.36 0.30 0.31 0.33 0.46 0.48 0.51 0.56 0.61 0.68 0.81 0.86 0.99 0.92 0.87 0.81 0.61 0.72 0.55 0.49 0.48 0.51 0.48 0.43 0.38 0.42 0.51 0.59 0.63
0.81 0.79 0.77 0.77 0.76 0.72 0.70 0.67 0.66 0.66 0.63 0.60 0.56 0.56 0.55 0.52 0.46 0.41 0.45 0.30 0.28 0.35 0.29 0.47 0.51 0.57 0.63 0.64 0.53 0.66 0.90 0.72 0.71 0.58 0.63 0.58 0.51 0.55 0.52 0.47 0.41 0.40 0.38 0.38 0.48 0.56 0.56
0.84 0.82 0.80 0.80 0.79 0.75 0.72 0.70 0.67 0.67 0.65 0.61 0.58 0.56 0.53 0.50 0.46 0.40 0.43 0.38 0.44 0.40 0.24 0.28 0.41 0.49 0.55 0.64 0.56 0.54 0.68 0.67 0.60 0.55 0.57 0.52 0.56 0.53 0.50 0.44 0.39 0.39 0.38 0.38 0.44 0.48 0.53
1.00 0.98 0.92 0.85 0.82 0.78 0.75 0.72 0.70 0.66 0.66 0.64 0.60 0.56 0.53 0.48 0.37 0.36 0.40 0.51 0.48 0.44 0.17 0.18 0.20 0.31 0.48 0.58 0.51 0.64 0.61 0.58 0.54 0.52 0.56 0.53 0.57 0.50 0.47 0.42 0.40 0.37 0.42 0.42 0.43 0.43 0.40
1.03 1.02 1.00 1.02 0.99 0.91 0.82 0.75 0.71 0.68 0.65 0.63 0.61 0.56 0.54 0.51 0.37 0.30 0.41 0.52 0.53 0.39 0.11 0.18 0.21 0.33 0.31 0.38 0.55 0.53 0.64 0.61 0.47 0.48 0.51 0.47 0.49 0.46 0.44 0.42 0.41 0.35 0.49 0.45 0.45 0.42 0.34
0.95 0.97 0.98 0.98 0.96 0.97 0.94 0.88 0.81 0.75 0.68 0.63 0.59 0.56 0.53 0.48 0.43 0.38 0.43 0.51 0.46 0.20 0.13 0.15 0.22 0.19 0.19 0.24 0.39 0.50 0.51 0.60 0.56 0.47 0.47 0.45 0.54 0.50 0.48 0.44 0.40 0.41 0.37 0.37 0.38 0.35 0.27
0.86 0.88 0.87 0.88 0.91 0.91 0.89 0.87 0.84 0.78 0.74 0.70 0.62 0.54 0.51 0.49 0.34 0.42 0.43 0.40 0.20 0.16 0.20 0.16 0.19 0.21 0.18 0.18 0.23 0.35 0.41 0.41 0.38 0.32 0.32 0.39 0.42 0.51 0.51 0.42 0.41 0.36 0.31 0.24 0.22 0.23 0.26
0.75 0.77 0.75 0.79 0.81 0.80 0.80 0.78 0.75 0.72 0.68 0.65 0.65 0.63 0.51 0.49 0.50 0.46 0.35 0.29 0.15 0.18 0.18 0.25 0.24 0.21 0.19 0.19 0.19 0.25 0.34 0.37 0.39 0.37 0.30 0.28 0.29 0.42 0.48 0.42 0.39 0.34 0.31 0.25 0.24 0.24 0.26
0.75 0.74 0.74 0.74 0.72 0.71 0.69 0.69 0.70 0.69 0.66 0.58 0.55 0.56 0.54 0.49 0.49 0.44 0.26 0.19 0.18 0.20 0.18 0.18 0.22 0.20 0.22 0.21 0.19 0.19 0.25 0.32 0.38 0.36 0.30 0.26 0.28 0.46 0.48 0.47 0.42 0.35 0.26 0.30 0.26 0.26 0.21
0.71 0.70 0.69 0.68 0.66 0.65 0.64 0.65 0.66 0.65 0.62 0.59 0.46 0.43 0.40 0.53 0.55 0.36 0.20 0.17 0.22 0.28 0.26 0.22 0.16 0.20 0.20 0.24 0.17 0.18 0.20 0.27 0.32 0.33 0.33 0.28 0.27 0.40 0.40 0.42 0.40 0.36 0.34 0.23 0.23 0.21 0.20
0.70 0.70 0.70 0.69 0.67 0.66 0.62 0.65 0.66 0.63 0.61 0.59 0.48 0.35 0.42 0.49 0.43 0.28 0.16 0.17 0.22 0.32 0.29 0.23 0.21 0.21 0.19 0.23 0.23 0.17 0.17 0.23 0.27 0.28 0.30 0.29 0.29 0.34 0.33 0.33 0.34 0.31 0.28 0.27 0.27 0.26 0.23
0.71 0.71 0.70 0.68 0.67 0.65 0.66 0.67 0.66 0.62 0.59 0.53 0.45 0.28 0.52 0.48 0.23 0.25 0.19 0.21 0.24 0.28 0.35 0.28 0.23 0.23 0.22 0.23 0.25 0.21 0.18 0.20 0.24 0.25 0.23 0.26 0.26 0.26 0.30 0.38 0.36 0.34 0.29 0.28 0.23 0.23 0.24
0.69 0.71 0.69 0.67 0.66 0.65 0.65 0.68 0.69 0.65 0.62 0.51 0.40 0.38 0.53 0.46 0.20 0.22 0.24 0.23 0.23 0.20 0.23 0.29 0.25 0.24 0.25 0.24 0.23 0.30 0.24 0.24 0.24 0.24 0.24 0.25 0.21 0.21 0.23 0.30 0.28 0.25 0.26 0.24 0.24 0.24 0.26
0.70 0.68 0.67 0.65 0.62 0.61 0.61 0.63 0.69 0.66 0.59 0.57 0.47 0.31 0.42 0.48 0.39 0.27 0.30 0.29 0.27 0.27 0.23 0.23 0.28 0.30 0.24 0.22 0.25 0.25 0.30 0.32 0.24 0.22 0.29 0.30 0.24 0.21 0.20 0.24 0.26 0.20 0.22 0.21 0.19 0.18 0.22
0.71 0.68 0.65 0.63 0.61 0.60 0.60 0.60 0.61 0.62 0.60 0.63 0.50 0.45 0.47 0.31 0.40 0.43 0.42 0.37 0.31 0.29 0.29 0.27 0.23 0.24 0.25 0.20 0.22 0.22 0.30 0.31 0.29 0.28 0.24 0.26 0.20 0.23 0.26 0.26 0.27 0.25 0.23 0.22 0.20 0.19 0.20
0.71 0.70 0.67 0.64 0.62 0.61 0.60 0.59 0.61 0.59 0.60 0.59 0.43 0.39 0.46 0.37 0.40 0.37 0.38 0.35 0.41 0.41 0.37 0.34 0.32 0.25 0.29 0.20 0.21 0.23 0.29 0.34 0.38 0.42 0.29 0.23 0.19 0.21 0.22 0.24 0.26 0.25 0.23 0.23 0.23 0.23 0.23
0.71 0.69 0.67 0.65 0.63 0.62 0.59 0.60 0.63 0.62 0.61 0.49 0.52 0.58 0.47 0.34 0.36 0.36 0.37 0.46 0.50 0.64 0.56 0.51 0.49 0.57 0.43 0.43 0.41 0.35 0.32 0.40 0.41 0.41 0.37 0.27 0.20 0.20 0.17 0.22 0.21 0.19 0.21 0.22 0.23 0.24 0.25
0.71 0.68 0.68 0.67 0.64 0.64 0.61 0.62 0.62 0.63 0.62 0.56 0.55 0.51 0.38 0.27 0.35 0.37 0.42 0.49 0.47 0.53 0.56 0.65 0.65 0.58 0.57 0.66 0.57 0.45 0.42 0.37 0.41 0.43 0.45 0.33 0.25 0.21 0.19 0.22 0.17 0.19 0.25 0.25 0.24 0.25 0.27
0.72 0.71 0.70 0.68 0.68 0.68 0.68 0.68 0.65 0.62 0.62 0.56 0.57 0.51 0.43 0.30 0.35 0.36 0.43 0.46 0.52 0.55 0.55 0.60 0.63 0.76 0.74 0.59 0.41 0.29 0.30 0.31 0.35 0.45 0.44 0.41 0.34 0.26 0.23 0.24 0.23 0.21 0.26 0.24 0.24 0.24 0.28
0.74 0.72 0.70 0.69 0.68 0.68 0.68 0.66 0.66 0.67 0.64 0.60 0.61 0.68 0.56 0.43 0.40 0.61 0.54 0.57 0.52 0.54 0.50 0.55 0.75 0.81 0.71 0.54 0.44 0.29 0.26 0.29 0.31 0.41 0.46 0.44 0.42 0.35 0.28 0.21 0.19 0.20 0.27 0.28 0.27 0.21 0.31
0.74 0.71 0.71 0.70 0.68 0.67 0.67 0.66 0.66 0.65 0.70 0.68 0.64 0.74 0.63 0.48 0.55 0.61 0.53 0.56 0.67 0.66 0.60 0.64 0.75 0.71 0.73 0.54 0.43 0.30 0.30 0.36 0.34 0.36 0.36 0.36 0.38 0.35 0.34 0.27 0.24 0.35 0.38 0.36 0.22 0.22 0.34
0.76 0.73 0.72 0.70 0.68 0.66 0.67 0.66 0.64 0.65 0.68 0.71 0.67 0.75 0.64 0.54 0.57 0.60 0.61 0.57 0.65 0.68 0.58 0.69 0.69 0.74 0.68 0.53 0.47 0.37 0.33 0.43 0.41 0.45 0.41 0.36 0.36 0.35 0.38 0.37 0.31 0.49 0.41 0.29 0.39 0.45 0.48
0.77 0.75 0.73 0.70 0.67 0.65 0.64 0.62 0.63 0.65 0.68 0.70 0.60 0.79 0.83 0.66 0.59 0.63 0.67 0.81 0.81 0.79 0.73 0.78 0.78 0.87 0.83 0.65 0.68 0.61 0.52 0.59 0.44 0.44 0.57 0.43 0.47 0.43 0.43 0.42 0.59 0.60 0.59 0.61 0.57 0.49 0.50

GFSGBSN_prec_pwat_345.txt.gz
Precipitable_Water
0.69 0.67 0.67 0.67 0.67 0.66 0.64 0.64 0.63 0.62 0.61 0.56 0.52 0.51 0.53 0.66 0.72 0.76 0.74 0.75 0.78 0.87 0.91 0.96 1.01 1.05 1.03 0.96 1.00 1.23 1.28 1.39 1.47 1.56 1.37 1.28 1.02 1.10 0.78 0.95 0.85 0.68 0.76 0.83 0.89 0.92 0.79
0.69 0.68 0.68 0.68 0.66 0.66 0.65 0.64 0.63 0.64 0.62 0.61 0.56 0.51 0.50 0.51 0.66 0.70 0.74 0.75 0.75 0.79 0.86 0.91 0.97 1.02 1.01 0.79 1.32 1.28 1.32 1.33 1.41 1.36 1.20 1.16 0.98 1.08 0.97 0.73 0.71 0.79 0.78 0.81 0.90 0.88 0.90
0.70 0.69 0.68 0.68 0.67 0.66 0.65 0.65 0.64 0.63 0.64 0.62 0.60 0.54 0.49 0.48 0.50 0.66 0.68 0.70 0.72 0.73 0.78 0.85 0.91 0.96 0.87 0.82 1.39 1.36 1.33 1.31 1.29 1.19 1.09 1.05 0.97 0.96 0.93 0.75 0.77 0.80 0.81 0.73 0.78 0.93 0.97
0.72 0.71 0.70 0.68 0.68 0.67 0.66 0.64 0.63 0.62 0.61 0.62 0.60 0.57 0.52 0.47 0.45 0.47 0.62 0.64 0.65 0.66 0.69 0.75 0.85 0.92 0.77 1.04 1.37 1.28 1.28 1.23 1.24 1.19 1.09 1.06 0.97 0.94 0.81 0.67 0.78 1.01 1.01 0.57 0.68 0.77 0.83
0.73 0.72 0.72 0.72 0.68 0.66 0.65 0.64 0.63 0.61 0.58 0.56 0.57 0.57 0.55 0.48 0.44 0.41 0.42 0.57 0.60 0.64 0.68 0.66 0.66 0.77 0.73 1.00 1.03 1.19 1.25 1.08 1.12 1.08 1.07 0.99 0.90 0.77 0.68 0.97 0.75 0.64 0.47 0.54 0.62 0.72 0.63
0.77 0.74 0.73 0.73 0.70 0.68 0.66 0.65 0.64 0.63 0.60 0.57 0.56 0.56 0.54 0.51 0.45 0.38 0.35 0.38 0.56 0.62 0.63 0.67 0.59 0.57 0.71 0.75 0.92 1.03 1.16 1.11 0.92 0.92 0.85 0.87 0.73 0.64 0.59 0.64 0.49 0.43 0.51 0.48 0.62 0.62 0.78
0.80 0.79 0.77 0.76 0.74 0.71 0.69 0.67 0.65 0.65 0.62 0.60 0.56 0.54 0.53 0.50 0.46 0.40 0.37 0.33 0.31 0.39 0.56 0.50 0.53 0.56 0.67 0.80 0.88 0.87 1.03 0.95 0.88 0.83 0.68 0.74 0.59 0.59 0.55 0.52 0.47 0.41 0.42 0.46 0.48 0.55 0.73
0.82 0.81 0.81 0.80 0.78 0.74 0.71 0.69 0.67 0.64 0.64 0.60 0.57 0.53 0.50 0.48 0.44 0.42 0.47 0.39 0.37 0.43 0.34 0.50 0.50 0.52 0.56 0.61 0.58 0.76 0.97 0.73 0.71 0.62 0.70 0.62 0.49 0.65 0.54 0.49 0.42 0.41 0.41 0.42 0.41 0.51 0.60
0.99 0.96 0.91 0.85 0.80 0.77 0.74 0.71 0.68 0.65 0.63 0.61 0.58 0.54 0.49 0.45 0.43 0.44 0.43 0.41 0.42 0.38 0.21 0.23 0.40 0.48 0.55 0.59 0.54 0.55 0.68 0.72 0.61 0.61 0.61 0.58 0.61 0.66 0.46 0.47 0.39 0.39 0.42 0.42 0.55 0.42 0.48
0.99 0.99 0.97 0.97 0.97 0.90 0.81 0.76 0.71 0.67 0.63 0.61 0.58 0.55 0.50 0.43 0.41 0.32 0.43 0.46 0.46 0.45 0.17 0.16 0.21 0.31 0.42 0.53 0.52 0.65 0.70 0.57 0.57 0.54 0.57 0.57 0.63 0.58 0.51 0.45 0.44 0.43 0.44 0.40 0.40 0.51 0.66
0.88 0.89 0.89 0.89 0.92 0.93 0.92 0.86 0.79 0.73 0.67 0.62 0.59 0.55 0.51 0.50 0.35 0.33 0.43 0.47 0.47 0.40 0.15 0.22 0.24 0.31 0.28 0.37 0.52 0.56 0.64 0.56 0.47 0.48 0.51 0.52 0.56 0.50 0.46 0.47 0.46 0.42 0.47 0.39 0.41 0.45 0.37
0.77 0.79 0.79 0.80 0.82 0.81 0.79 0.81 0.78 0.73 0.69 0.64 0.59 0.56 0.51 0.53 0.45 0.39 0.37 0.45 0.42 0.20 0.15 0.21 0.23 0.19 0.19 0.24 0.33 0.56 0.60 0.56 0.59 0.49 0.51 0.50 0.60 0.56 0.50 0.52 0.45 0.42 0.40 0.41 0.38 0.38 0.33
0.73 0.71 0.71 0.70 0.68 0.65 0.65 0.64 0.63 0.64 0.65 0.62 0.57 0.57 0.51 0.46 0.43 0.47 0.39 0.36 0.20 0.14 0.24 0.19 0.20 0.23 0.19 0.16 0.21 0.35 0.47 0.45 0.39 0.36 0.36 0.44 0.44 0.49 0.49 0.46 0.43 0.36 0.35 0.28 0.26 0.27 0.29
0.72 0.69 0.67 0.66 0.63 0.60 0.58 0.56 0.57 0.59 0.59 0.56 0.52 0.56 0.59 0.44 0.47 0.43 0.35 0.26 0.16 0.18 0.19 0.25 0.25 0.26 0.22 0.22 0.18 0.20 0.36 0.36 0.45 0.43 0.35 0.34 0.32 0.39 0.46 0.44 0.42 0.35 0.36 0.30 0.28 0.29 0.31
0.70 0.70 0.69 0.67 0.65 0.62 0.59 0.58 0.58 0.56 0.55 0.51 0.49 0.51 0.50 0.57 0.47 0.41 0.29 0.17 0.18 0.22 0.25 0.19 0.18 0.20 0.22 0.23 0.22 0.21 0.22 0.30 0.38 0.43 0.34 0.31 0.32 0.42 0.42 0.47 0.45 0.44 0.38 0.37 0.30 0.32 0.30
0.71 0.71 0.71 0.69 0.67 0.65 0.63 0.63 0.60 0.56 0.53 0.49 0.43 0.44 0.44 0.44 0.52 0.37 0.22 0.17 0.20 0.27 0.29 0.26 0.19 0.18 0.16 0.21 0.24 0.22 0.20 0.23 0.28 0.42 0.46 0.36 0.33 0.37 0.44 0.45 0.47 0.44 0.48 0.29 0.27 0.24 0.26
0.70 0.72 0.71 0.68 0.66 0.65 0.63 0.62 0.61 0.57 0.53 0.48 0.48 0.37 0.53 0.43 0.40 0.31 0.19 0.18 0.19 0.23 0.32 0.27 0.21 0.19 0.19 0.22 0.27 0.27 0.20 0.23 0.26 0.31 0.44 0.41 0.33 0.31 0.39 0.42 0.38 0.34 0.36 0.35 0.30 0.25 0.24
0.71 0.70 0.69 0.67 0.64 0.62 0.59 0.57 0.60 0.58 0.50 0.46 0.47 0.34 0.64 0.47 0.26 0.25 0.22 0.23 0.23 0.22 0.26 0.30 0.30 0.25 0.25 0.25 0.23 0.23 0.27 0.22 0.25 0.28 0.31 0.37 0.30 0.26 0.32 0.45 0.40 0.40 0.36 0.32 0.27 0.26 0.28
0.73 0.71 0.68 0.65 0.62 0.60 0.58 0.57 0.57 0.60 0.56 0.47 0.39 0.38 0.53 0.43 0.22 0.24 0.27 0.26 0.24 0.23 0.23 0.25 0.26 0.31 0.29 0.23 0.20 0.24 0.27 0.33 0.27 0.27 0.25 0.33 0.26 0.22 0.26 0.39 0.40 0.34 0.38 0.39 0.32 0.30 0.26
0.73 0.71 0.69 0.67 0.63 0.59 0.58 0.57 0.57 0.55 0.56 0.54 0.48 0.34 0.47 0.51 0.41 0.31 0.24 0.27 0.31 0.36 0.29 0.23 0.21 0.23 0.29 0.26 0.25 0.24 0.25 0.31 0.33 0.28 0.30 0.30 0.26 0.23 0.20 0.26 0.37 0.33 0.31 0.33 0.31 0.26 0.26
0.73 0.71 0.70 0.68 0.64 0.60 0.58 0.56 0.56 0.53 0.54 0.62 0.54 0.48 0.49 0.30 0.40 0.44 0.44 0.38 0.35 0.33 0.36 0.35 0.24 0.23 0.22 0.26 0.28 0.25 0.25 0.27 0.34 0.34 0.26 0.26 0.23 0.25 0.24 0.27 0.32 0.34 0.33 0.27 0.23 0.24 0.20
0.73 0.71 0.68 0.67 0.64 0.61 0.59 0.57 0.56 0.54 0.56 0.58 0.37 0.41 0.46 0.32 0.31 0.32 0.32 0.33 0.34 0.35 0.42 0.43 0.32 0.35 0.29 0.22 0.25 0.28 0.29 0.27 0.25 0.35 0.33 0.26 0.20 0.26 0.26 0.27 0.27 0.28 0.30 0.31 0.26 0.24 0.22
0.72 0.71 0.70 0.69 0.67 0.68 0.66 0.64 0.58 0.56 0.60 0.49 0.52 0.51 0.44 0.31 0.28 0.29 0.30 0.36 0.41 0.49 0.55 0.59 0.54 0.47 0.40 0.47 0.37 0.42 0.41 0.32 0.35 0.38 0.50 0.40 0.23 0.20 0.21 0.26 0.26 0.26 0.27 0.28 0.27 0.28 0.26
0.73 0.72 0.71 0.70 0.69 0.69 0.68 0.66 0.65 0.60 0.57 0.55 0.55 0.46 0.38 0.28 0.30 0.31 0.38 0.39 0.38 0.40 0.42 0.47 0.55 0.57 0.63 0.75 0.72 0.64 0.61 0.48 0.46 0.39 0.44 0.41 0.38 0.25 0.20 0.24 0.21 0.27 0.29 0.29 0.29 0.27 0.28
0.76 0.74 0.72 0.72 0.71 0.70 0.69 0.69 0.68 0.64 0.62 0.54 0.57 0.50 0.43 0.30 0.35 0.35 0.37 0.39 0.44 0.48 0.45 0.46 0.46 0.57 0.69 0.68 0.54 0.48 0.44 0.40 0.36 0.38 0.38 0.39 0.40 0.32 0.25 0.22 0.24 0.27 0.27 0.25 0.26 0.26 0.28
0.79 0.75 0.73 0.74 0.72 0.72 0.71 0.69 0.69 0.67 0.64 0.61 0.58 0.66 0.53 0.39 0.40 0.47 0.42 0.43 0.42 0.43 0.46 0.53 0.62 0.63 0.68 0.58 0.58 0.40 0.33 0.27 0.23 0.29 0.34 0.36 0.42 0.38 0.32 0.25 0.21 0.25 0.32 0.33 0.31 0.25 0.33
0.81 0.77 0.74 0.73 0.72 0.72 0.70 0.69 0.68 0.67 0.66 0.60 0.60 0.71 0.61 0.44 0.45 0.49 0.45 0.47 0.57 0.62 0.58 0.62 0.73 0.76 0.74 0.55 0.47 0.41 0.35 0.38 0.25 0.26 0.30 0.33 0.41 0.37 0.36 0.32 0.31 0.34 0.38 0.35 0.26 0.24 0.32
0.84 0.81 0.76 0.75 0.73 0.71 0.69 0.70 0.68 0.66 0.67 0.64 0.57 0.69 0.62 0.49 0.46 0.53 0.56 0.51 0.54 0.53 0.58 0.67 0.62 0.59 0.57 0.58 0.46 0.43 0.42 0.40 0.32 0.33 0.34 0.41 0.40 0.39 0.40 0.35 0.30 0.44 0.42 0.32 0.50 0.57 0.56
0.83 0.83 0.80 0.78 0.76 0.72 0.69 0.67 0.65 0.66 0.67 0.68 0.52 0.68 0.74 0.57 0.46 0.59 0.58 0.62 0.60 0.61 0.64 0.69 0.64 0.72 0.83 0.65 0.81 0.59 0.62 0.48 0.35 0.33 0.42 0.44 0.41 0.41 0.42 0.40 0.72 0.70 0.67 0.64 0.60 0.57 0.55

GFSGBSN_prec_pwat_348.txt.gz
Precipitable_Water
0.68 0.69 0.68 0.67 0.67 0.66 0.65 0.63 0.63 0.64 0.62 0.58 0.53 0.51 0.55 0.70 0.72 0.72 0.72 0.77 0.85 0.90 0.93 0.97 1.02 1.05 0.96 0.98 1.01 1.10 1.15 1.24 1.31 1.58 1.48 1.57 1.25 1.40 0.92 0.75 0.83 0.72 0.74 0.83 0.83 0.73 0.82
0.68 0.68 0.68 0.67 0.66 0.65 0.63 0.62 0.61 0.61 0.60 0.57 0.54 0.50 0.48 0.53 0.68 0.70 0.69 0.71 0.78 0.82 0.86 0.92 0.97 1.04 0.99 0.76 1.39 1.12 1.18 1.18 1.30 1.35 1.26 1.00 0.88 1.03 1.03 0.90 0.79 0.82 0.84 0.85 0.87 0.82 0.79
0.70 0.69 0.69 0.66 0.65 0.65 0.64 0.63 0.62 0.60 0.58 0.59 0.57 0.53 0.48 0.47 0.53 0.65 0.67 0.67 0.69 0.77 0.80 0.84 0.95 0.96 0.87 0.84 1.37 1.25 1.21 1.15 1.31 1.14 1.00 0.99 0.90 1.01 1.12 0.82 1.02 0.80 0.70 0.85 0.83 0.97 0.97
0.71 0.72 0.72 0.69 0.67 0.65 0.65 0.65 0.63 0.62 0.59 0.57 0.58 0.56 0.51 0.46 0.45 0.52 0.59 0.61 0.65 0.67 0.75 0.79 0.90 0.90 0.80 1.00 1.35 1.24 1.24 1.19 1.18 1.09 1.05 0.98 0.89 0.99 0.99 0.99 1.01 0.97 0.88 0.73 0.72 0.93 0.93
0.74 0.74 0.73 0.72 0.69 0.68 0.66 0.64 0.64 0.63 0.61 0.58 0.55 0.56 0.52 0.48 0.43 0.41 0.46 0.55 0.56 0.65 0.70 0.75 0.75 0.80 0.74 1.04 0.94 1.18 1.21 1.08 1.10 0.98 0.97 0.94 0.92 1.03 1.01 0.83 0.82 0.94 0.77 0.68 0.65 0.79 0.77
0.78 0.79 0.77 0.75 0.72 0.70 0.67 0.66 0.64 0.63 0.61 0.59 0.55 0.52 0.52 0.49 0.44 0.39 0.34 0.44 0.53 0.54 0.61 0.65 0.61 0.60 0.69 0.71 0.88 1.03 1.16 1.11 0.96 0.79 0.75 0.72 0.88 0.85 0.84 0.71 0.52 0.55 0.54 0.64 0.61 0.59 0.91
0.81 0.80 0.79 0.77 0.75 0.72 0.70 0.67 0.65 0.63 0.61 0.59 0.57 0.52 0.49 0.48 0.44 0.41 0.35 0.36 0.41 0.49 0.49 0.46 0.57 0.52 0.53 0.72 0.86 0.89 1.00 0.98 0.92 0.70 0.58 0.75 0.67 0.64 0.64 0.59 0.46 0.38 0.40 0.47 0.51 0.52 0.77
0.97 0.94 0.90 0.84 0.79 0.75 0.73 0.70 0.67 0.64 0.61 0.59 0.57 0.53 0.48 0.45 0.42 0.40 0.46 0.42 0.41 0.44 0.40 0.55 0.53 0.46 0.48 0.70 0.67 0.74 0.88 0.79 0.73 0.61 0.63 0.63 0.55 0.59 0.66 0.46 0.41 0.43 0.46 0.48 0.45 0.44 0.64
0.91 0.90 0.90 0.90 0.92 0.91 0.84 0.76 0.71 0.67 0.64 0.60 0.58 0.54 0.49 0.43 0.40 0.42 0.41 0.43 0.41 0.39 0.23 0.23 0.41 0.50 0.51 0.53 0.54 0.54 0.71 0.77 0.68 0.61 0.64 0.60 0.70 0.71 0.59 0.43 0.43 0.41 0.43 0.52 0.57 0.51 0.53
0.82 0.81 0.81 0.82 0.85 0.84 0.85 0.81 0.74 0.68 0.63 0.61 0.58 0.54 0.49 0.43 0.42 0.38 0.41 0.47 0.44 0.42 0.18 0.14 0.15 0.27 0.45 0.54 0.43 0.53 0.61 0.62 0.56 0.55 0.61 0.62 0.67 0.64 0.60 0.47 0.48 0.45 0.51 0.41 0.40 0.40 0.44
0.71 0.72 0.71 0.71 0.68 0.67 0.64 0.63 0.68 0.64 0.60 0.59 0.57 0.53 0.49 0.49 0.39 0.36 0.42 0.40 0.43 0.39 0.16 0.22 0.19 0.25 0.28 0.33 0.43 0.51 0.60 0.61 0.52 0.47 0.51 0.51 0.57 0.55 0.55 0.51 0.52 0.47 0.46 0.45 0.36 0.42 0.50
0.69 0.67 0.64 0.63 0.60 0.56 0.55 0.53 0.54 0.57 0.59 0.57 0.54 0.51 0.51 0.51 0.46 0.43 0.37 0.34 0.38 0.21 0.15 0.22 0.29 0.26 0.21 0.21 0.29 0.40 0.61 0.61 0.60 0.50 0.47 0.49 0.55 0.58 0.60 0.52 0.52 0.52 0.40 0.42 0.42 0.40 0.35
0.67 0.66 0.64 0.62 0.60 0.56 0.54 0.51 0.51 0.49 0.50 0.52 0.50 0.47 0.49 0.47 0.45 0.54 0.42 0.32 0.20 0.14 0.20 0.20 0.22 0.24 0.23 0.18 0.20 0.28 0.40 0.54 0.46 0.37 0.34 0.44 0.44 0.54 0.57 0.50 0.52 0.47 0.34 0.32 0.29 0.29 0.30
0.67 0.67 0.67 0.65 0.61 0.59 0.56 0.55 0.52 0.49 0.46 0.45 0.43 0.42 0.49 0.47 0.46 0.41 0.35 0.25 0.16 0.20 0.19 0.24 0.24 0.24 0.25 0.25 0.20 0.20 0.23 0.32 0.56 0.47 0.38 0.37 0.32 0.43 0.49 0.45 0.44 0.45 0.34 0.32 0.29 0.32 0.40
0.68 0.69 0.68 0.66 0.63 0.60 0.57 0.54 0.53 0.50 0.47 0.43 0.40 0.44 0.50 0.58 0.50 0.40 0.27 0.17 0.17 0.21 0.25 0.27 0.26 0.21 0.20 0.24 0.24 0.23 0.20 0.21 0.41 0.46 0.36 0.35 0.36 0.45 0.49 0.47 0.45 0.41 0.41 0.40 0.35 0.35 0.34
0.68 0.67 0.67 0.66 0.64 0.62 0.58 0.54 0.52 0.52 0.45 0.42 0.36 0.41 0.48 0.53 0.43 0.37 0.23 0.16 0.20 0.24 0.28 0.29 0.23 0.24 0.21 0.20 0.21 0.24 0.23 0.24 0.21 0.38 0.45 0.43 0.35 0.44 0.45 0.44 0.43 0.44 0.47 0.41 0.41 0.28 0.27
0.69 0.68 0.67 0.65 0.63 0.61 0.58 0.55 0.53 0.51 0.47 0.44 0.49 0.49 0.57 0.54 0.34 0.31 0.20 0.19 0.20 0.21 0.24 0.23 0.27 0.26 0.25 0.21 0.22 0.24 0.29 0.27 0.27 0.24 0.33 0.38 0.42 0.36 0.43 0.39 0.37 0.37 0.38 0.43 0.44 0.36 0.26
0.73 0.72 0.70 0.67 0.65 0.61 0.57 0.54 0.53 0.51 0.48 0.41 0.51 0.41 0.68 0.57 0.27 0.27 0.24 0.27 0.27 0.23 0.24 0.23 0.22 0.25 0.25 0.26 0.24 0.25 0.28 0.31 0.33 0.26 0.24 0.27 0.35 0.38 0.36 0.42 0.42 0.46 0.41 0.43 0.36 0.33 0.33
0.75 0.74 0.72 0.70 0.67 0.62 0.57 0.54 0.53 0.54 0.54 0.45 0.38 0.40 0.54 0.46 0.24 0.29 0.33 0.30 0.30 0.26 0.24 0.24 0.22 0.25 0.32 0.28 0.24 0.25 0.27 0.31 0.33 0.32 0.26 0.27 0.27 0.31 0.36 0.33 0.36 0.39 0.44 0.44 0.37 0.35 0.31
0.75 0.74 0.72 0.70 0.65 0.62 0.59 0.56 0.53 0.52 0.53 0.60 0.55 0.39 0.52 0.56 0.47 0.40 0.39 0.33 0.31 0.37 0.35 0.35 0.31 0.24 0.22 0.20 0.24 0.26 0.25 0.28 0.32 0.34 0.39 0.31 0.26 0.29 0.29 0.28 0.32 0.36 0.42 0.37 0.36 0.36 0.35
0.76 0.74 0.72 0.69 0.67 0.65 0.63 0.59 0.54 0.50 0.53 0.63 0.54 0.48 0.47 0.33 0.39 0.40 0.39 0.37 0.32 0.29 0.34 0.37 0.34 0.34 0.29 0.21 0.20 0.23 0.30 0.28 0.29 0.31 0.35 0.33 0.24 0.26 0.29 0.31 0.29 0.33 0.43 0.43 0.34 0.36 0.36
0.73 0.73 0.73 0.72 0.70 0.68 0.66 0.63 0.59 0.50 0.55 0.59 0.42 0.37 0.40 0.35 0.31 0.28 0.29 0.30 0.30 0.33 0.37 0.39 0.36 0.46 0.38 0.32 0.26 0.22 0.25 0.32 0.32 0.32 0.32 0.32 0.27 0.27 0.24 0.29 0.31 0.28 0.31 0.40 0.39 0.33 0.31
0.74 0.73 0.71 0.71 0.70 0.69 0.66 0.65 0.63 0.56 0.53 0.46 0.51 0.49 0.38 0.30 0.30 0.29 0.29 0.33 0.35 0.39 0.43 0.48 0.51 0.50 0.49 0.51 0.48 0.45 0.51 0.39 0.34 0.33 0.30 0.29 0.31 0.31 0.20 0.22 0.27 0.26 0.27 0.30 0.34 0.38 0.36
0.80 0.76 0.74 0.73 0.72 0.71 0.69 0.67 0.67 0.65 0.60 0.54 0.53 0.46 0.34 0.27 0.31 0.31 0.36 0.36 0.34 0.34 0.32 0.35 0.40 0.39 0.48 0.61 0.68 0.64 0.59 0.54 0.49 0.45 0.41 0.31 0.36 0.42 0.28 0.23 0.20 0.25 0.34 0.31 0.32 0.34 0.36
0.81 0.79 0.76 0.74 0.72 0.72 0.71 0.69 0.67 0.66 0.63 0.54 0.59 0.51 0.41 0.29 0.33 0.33 0.38 0.42 0.46 0.44 0.41 0.42 0.45 0.47 0.49 0.40 0.41 0.43 0.41 0.44 0.42 0.51 0.49 0.46 0.41 0.40 0.40 0.33 0.22 0.24 0.30 0.30 0.30 0.31 0.38
0.83 0.80 0.78 0.75 0.73 0.72 0.72 0.71 0.70 0.68 0.67 0.59 0.57 0.66 0.53 0.37 0.29 0.47 0.41 0.39 0.38 0.43 0.44 0.46 0.51 0.56 0.63 0.49 0.41 0.35 0.30 0.35 0.39 0.39 0.47 0.47 0.46 0.39 0.37 0.38 0.30 0.25 0.28 0.34 0.36 0.29 0.33
0.84 0.82 0.81 0.79 0.77 0.75 0.73 0.72 0.71 0.71 0.67 0.60 0.55 0.67 0.58 0.43 0.37 0.43 0.39 0.41 0.45 0.43 0.38 0.41 0.52 0.64 0.68 0.55 0.42 0.34 0.35 0.41 0.38 0.39 0.37 0.36 0.38 0.34 0.30 0.34 0.39 0.40 0.38 0.33 0.27 0.29 0.37
0.85 0.82 0.81 0.81 0.78 0.77 0.76 0.73 0.72 0.69 0.66 0.61 0.54 0.64 0.57 0.45 0.38 0.42 0.47 0.44 0.47 0.46 0.39 0.47 0.49 0.57 0.53 0.49 0.48 0.45 0.42 0.44 0.44 0.44 0.42 0.37 0.30 0.29 0.29 0.30 0.32 0.47 0.43 0.35 0.52 0.58 0.44
0.88 0.82 0.78 0.81 0.80 0.78 0.76 0.75 0.75 0.72 0.66 0.64 0.47 0.66 0.70 0.54 0.40 0.47 0.45 0.51 0.51 0.51 0.49 0.51 0.53 0.58 0.66 0.64 0.75 0.68 0.50 0.51 0.59 0.44 0.53 0.37 0.34 0.32 0.30 0.30 0.44 0.49 0.62 0.69 0.77 0.64 0.65